Regional Weather Roundup
Issued by NWS Lake Charles, LA

Home | Current Version | Previous Version | Text Only | Print | Product List | Glossary On
Versions: 1 2 3 4 5 6 7 8 9 10 11 12 13 14 15 16 17 18 19 20 21 22 23 24 25 26 27 28 29 30 31 32 33 34 35 36 37 38 39 40 41 42 43 44 45 46 47 48 49 50
033
ASUS44 KLCH 061510
RWRLCH
REGIONAL WEATHER ROUNDUP
NATIONAL WEATHER SERVICE LAKE CHARLES LA
900 AM CST TUE DEC 06 2016

Note: "fair" indicates few or no clouds below 12,000 feet with no
significant weather and/or obstructions to visibility.


ACROSS SOUTHEAST TEXAS

CITY           SKY/WX    TMP DP  RH WIND       PRES   REMARKS
BEAUMONT       CLOUDY    54  53  97 VRB3      29.93R
BEAUMONT CITY  FOG       53  51  94 CALM      29.94R VSB 1/2
ORANGE         CLOUDY   N/A N/A N/A CALM      29.95R
JASPER         CLOUDY    53  51  95 CALM      29.93S
$$

ACROSS CENTRAL LOUISIANA

CITY           SKY/WX    TMP DP  RH WIND       PRES   REMARKS
LEESVILLE      CLOUDY    51  50  97 NW6       29.92R
FULLERTON      CLOUDY    52  50  93 W3        29.91R
ALEXANDRIA INT CLOUDY    51  50  96 W9        29.93R
ESLER FIELD    CLOUDY    51  50  96 W3        29.92R
DERIDDER       CLOUDY    53  51  95 CALM      29.94R
OAKDALE        CLOUDY    52  50  92 W5        29.94R
OPELOUSAS      CLOUDY    52  50  92 W6        29.95R
$$

ACROSS SOUTHWEST AND SOUTH CENTRAL LOUISIANA

CITY           SKY/WX    TMP DP  RH WIND       PRES   REMARKS
SULPHUR        CLOUDY    54  51  92 NW7       29.95R
LAKE CHARLES   CLOUDY    53  50  89 NW5       29.94R
CHENNAULT INT  CLOUDY    54  50  87 VRB6      29.94R
CAMERON PHI    SUNNY     55  54  94 NW5       29.93R
DEQUINCY       CLOUDY    51  49  95 CALM      29.95R
JENNINGS       CLOUDY    54  50  87 NW9       29.95R
LAFAYETTE      CLOUDY    54  51  90 W8        29.95R
NEW IBERIA     CLOUDY    56  50  80 W8        29.95R
ABBEVILLE      FAIR      55  52  88 W7        29.95R
PATTERSON      CLOUDY   N/A N/A N/A NW7       29.95R
SALT POINT     NOT AVBL
$$

SELECTED SITES ACROSS THE REGION

CITY           SKY/WX    TMP DP  RH WIND       PRES   REMARKS
HOUSTON BUSH   MOSUNNY   52  51  97 S3        29.91R
HOUSTON HOBBY  SUNNY     54  51  90 W5        29.90R
GALVESTON      SUNNY     60  56  86 SW8       29.93R
COLLEGE STAT   SUNNY     52  50  93 SW5       29.88R
CONROE         SUNNY     52  50  93 S6        29.89R
HUNTSVILLE     MOSUNNY   52  49  89 VRB3      29.88R
LUFKIN         CLOUDY    50  49  96 CALM      29.91R
SHREVEPORT     CLOUDY    51  49  92 NW9       29.91R
MONROE         CLOUDY    51  47  86 W10       29.92R
NATCHEZ MS     CLOUDY    50  45  81 NW8       29.92R
BATON ROUGE    CLOUDY    54  51  90 W9        29.93R
N.O. INTL ARPT CLOUDY    56  53  90 W10       29.93R
SLIDELL        CLOUDY    57  52  83 VRB5      29.91R
$$

MARINE REPORTS

STATION/POSITION TIME  SKY/WX   TEMP    WIND        PRES    VSBY
                                AIR SEA DIR/SP/G
                 (UTC)          (F)     (DEG/KT/KT) (MB)    (MI)
BUOY 30 S HIGH I 1450            63 67  250/ 10/ 12 1013.3R
WVE H/P(F/S)=  2/ 5

SEA RIM ST PARK  1500            56     290/  6/  7 1014.0R
PORT ARTHUR      1448               58  300/  4/  6 1013.3R
SABINE PASS N    1448            57 59  280/  3/  6 1014.4R
TEXAS POINT      NOT AVBL
CALCASIEU PASS   1448            54 57  360/  4/  5   N/A
LK CHARLES BEACH 1448            52 56              1014.3R
MARSH ISLAND     1400            56                   N/A
FRESH WATER LOCK 1448            56 60  270/  8/ 10 1014.6R
AMERADA PASS     1448            57 61  280/ 10/ 13 1013.6R
$$




USA.gov is the U.S. government's official web portal to all federal, state and local government web resources and services.